Content
SEND FEEDBACK

Daily
Averages
Monthly
Summary
United States of America

CHESTERFIELD, MISSOURI


Home > North America > United States > Missouri
Elevation: 170 meters     Latitude: 38 41N     Longitude: 090 31W

WEATHER
 
SELECT A DAY
Number of Records: 203,345;   Date Range: 1/1/95 - 7/22/14
 
SHARE

PRINT THIS DATA

[ ← Previous Day ]
WEATHER ALMANAC - 29 JANUARY, 2013
[ Next Day → ]
[ °F ]   °C
Weather ElementAverageHighLow
Temperature16.2 °C20 °C (9:51 am)12 °C (9:10 pm)
Dewpoint13.2 °C16 °C (12:57 pm)10.6 °C (11:51 pm)
Humidity83.5 %100 % (9:34 pm)68 % (10:02 am)
Barometer1002.4 hPa1008.8 hPa (1:51 am)997.3 hPa (11:51 pm)
Wind Speed19 km/h40.7 km/h (4:33 pm)
Wind Gust57.5 km/h (4:33 pm)
Weather ElementAverage
Visibility9.8 km
Wind DirectionSSW (198.8 °)

Weather ElementTotal
Precipitation75.95 mm
Heating Degree Days2.3 (Base 18.3)
Growing Degree Days6 (Base 10)
Averaged from 40 records on 29 January, 2013
WEATHER CONDITIONS BREAKOUT
WIND DIRECTION BREAKOUT
WEATHER BY HOUR - 29 JANUARY, 2013
[ °F ]   °C
Local TimeTemperatureDewpointHumidityBarometerVisibilityWind DirectionWind SpeedGust SpeedPrecipitationEventsConditions
1:51 AM18.3 °C14.4 °C78 %1008.8 hPa16.1 kmSouth (170°)25.9 km/h40.7 km/hMostly Cloudy
2:51 AM18.9 °C14.4 °C75 %1008.5 hPa16.1 kmSouth (190°)20.4 km/h35.2 km/hMostly Cloudy
3:51 AM18.9 °C14.4 °C75 %1007.8 hPa16.1 kmSouth (180°)24.1 km/h37 km/hMostly Cloudy
4:51 AM18.3 °C14.4 °C78 %1007.5 hPa16.1 kmSouth (190°)22.2 km/h35.2 km/hOvercast
5:51 AM18.9 °C14.4 °C75 %1007.5 hPa14.5 kmSouth (190°)18.5 km/hOvercast
6:51 AM19 °C14 °C73 %1007.5 hPa16.1 kmSouth (180°)20.4 km/h37 km/hOvercast
7:41 AM19 °C14 °C73 %1007.5 hPa16.1 kmSouth (180°)14.8 km/hOvercast
7:51 AM19.4 °C14.4 °C73 %1006.8 hPa16.1 kmSouth (190°)20.4 km/hOvercast
8:51 AM19.4 °C14.4 °C73 %1006.4 hPa14.5 kmSouth (170°)27.8 km/hOvercast
9:51 AM20 °C14.4 °C70 %1005.8 hPa14.5 kmSouth (180°)22.2 km/h44.4 km/hOvercast
10:02 AM20 °C14 °C68 %1006.4 hPa16.1 kmSouth (180°)27.8 km/h35.2 km/hOvercast
10:29 AM20 °C14 °C68 %1006.1 hPa16.1 kmSouth (180°)29.6 km/h40.7 km/hOvercast
10:51 AM20 °C14.4 °C70 %1005.1 hPa16.1 kmSouth (190°)31.5 km/h46.3 km/hOvercast
11:49 AM18 °C15 °C83 %1004.7 hPa6.4 kmSouth (170°)18.5 km/h0 mmRainLight Rain
11:51 AM18.3 °C15 °C81 %1004.1 hPa4.8 kmSSE (160°)14.8 km/h0 mmRainLight Rain
12:51 PM17.8 °C15.6 °C87 %1002.7 hPa4.8 kmSSE (160°)14.8 km/h0.25 mmRainLight Rain
12:57 PM18 °C16 °C88 %1002.7 hPa8 kmSouth (170°)16.7 km/h0 mmRainLight Rain
1:51 PM18.9 °C15 °C78 %1000 hPa12.9 kmSSE (160°)22.2 km/h0 mmOvercast
2:51 PM19.4 °C14.4 °C73 %999.3 hPa16.1 kmSouth (170°)24.1 km/h40.7 km/h0 mmOvercast
3:51 PM20 °C14.4 °C70 %998 hPa16.1 kmSouth (170°)27.8 km/h40.7 km/h0 mmOvercast
4:33 PM18 °C13 °C73 %999.3 hPa12.9 kmWNW (290°)40.7 km/h57.5 km/h0 mmRainLight Rain
4:41 PM15 °C13 °C88 %999.7 hPa3.2 kmNW (310°)33.3 km/h40.7 km/h1.02 mmRain-ThunderstormHeavy Thunderstorms and Rain
4:45 PM14 °C13 °C94 %1000 hPa2.4 kmWNW (300°)35.2 km/h44.4 km/h3.05 mmRain-ThunderstormHeavy Thunderstorms and Rain
4:51 PM14.4 °C12.8 °C90 %999.7 hPa3.2 kmNW (310°)27.8 km/h44.4 km/h5.08 mmRain-ThunderstormHeavy Thunderstorms and Rain
5:06 PM14 °C12 °C88 %999.7 hPa3.2 kmNW (320°)25.9 km/h40.7 km/h2.03 mmRain-ThunderstormThunderstorms and Rain
5:35 PM13 °C12 °C94 %1001 hPa4 kmNW (320°)11.1 km/h5.08 mmRain-ThunderstormThunderstorms and Rain
5:45 PM13 °C12 °C94 %1000.3 hPa4.8 kmNW (320°)13 km/h6.35 mmRainRain
5:51 PM13.3 °C11.7 °C90 %999.7 hPa4.8 kmNorth (350°)13 km/h7.11 mmRainRain
6:16 PM13 °C12 °C94 %999.3 hPa9.7 kmNE (40°)18.5 km/h1.02 mmRainLight Rain
6:51 PM13.3 °C11.7 °C90 %999 hPa6.4 kmNE (40°)11.1 km/h3.3 mmRainRain
7:23 PM13 °C12 °C94 %1000.3 hPa4.8 kmNW (310°)9.3 km/h3.3 mmRainRain
7:30 PM13 °C12 °C94 %1000 hPa4 kmNW (320°)11.1 km/h4.57 mmRainRain
7:37 PM13 °C12 °C94 %1000.3 hPa4 kmNNW (330°)11.1 km/h5.33 mmRain-ThunderstormThunderstorms and Rain
7:51 PM12.8 °C11.7 °C93 %999.7 hPa4 kmNW (310°)16.7 km/h7.37 mmRain-ThunderstormThunderstorms and Rain
8:51 PM12.8 °C11.1 °C89 %1000.3 hPa4 kmWNW (300°)5.6 km/h6.35 mmRain-ThunderstormThunderstorms and Rain
9:10 PM12 °C11 °C94 %1001 hPa4.8 kmCalm3.05 mmRain-ThunderstormLight Thunderstorms and Rain
9:34 PM12 °C12 °C100 %1000 hPa4.8 kmCalm4.57 mmRainLight Rain
9:51 PM12.2 °C11.1 °C93 %998.6 hPa9.7 kmCalm5.08 mmRainLight Rain
10:51 PM12.2 °C11.1 °C93 %997.6 hPa11.3 kmESE (110°)11.1 km/h1.27 mmRainLight Rain
11:51 PM12.2 °C10.6 °C90 %997.3 hPa14.5 kmSE (140°)16.7 km/h0.76 mmRainLight Rain
Hourly data recorded from KSTL, located 0 kilometers away from Chesterfield, Missouri







STORIES FROM OUR PARTNERS